Location: Possagno
(45.8500°N, 11.8667°E)
Time: 23:57:47
(UTC+00:00)

Resurs 1-4 Rocket - Pass Details

Date: 29 September 2020
Orbit: 800 x 813 km, 98.6° (Epoch: 27 October)

Event Time Altitude Azimuth Distance (km) Brightness Sun altitude
Rises 01:23:47 0° 9° (N) 3,330 5.9 -36.9°
Reaches altitude 10° 01:26:10 10° 5° (N) 2,397 5.0 -36.6°
Enters shadow 01:27:57 21° 359° (N) 1,741 4.1 -36.4°
